www.pogodaiklimat.ru

Погода и климат >> Архив погоды >> Великобритания >> Абойн


ПОГОДА в Абойне

  • Прогноз погоды в Абойне
  • Монитор погоды в Абойне

АРХИВ ПОГОДЫ в Абойне

Время (UTC), дата Ветер
(напр.,м/с)
 
Видим.   Явления Облачность Т
(С)
Тd
(С)
f
(%)
Тe
(С)
Тes
(С)
Комфортность P
(гПа)
Po
(гПа)
Тmin
(С)
Tmax
(С)
R
(мм)
R24
(мм)
S
(см)
13 12.08 З 1 50 км н/о +15.6 +7.1 57 +16 +16 1011.0 994.4
14 12.08 З 2 35 км н/о +16.7 +6.9 52 +17 +17 1010.7 994.2
15 12.08 С 1 40 км н/о +16.0 +5.1 48 +17 +17 1010.7 994.1
16 12.08 СЗ 1 45 км н/о +17.0 +4.9 45 +18 +18 1010.3 993.8
17 12.08 В 2 45 км н/о +15.4 +7.2 58 +15 +15 1010.4 993.8
18 12.08 СЗ 3 40 км слаб. ливневой дождь н/о +12.1 +8.8 80 +11 +11 1011.3 994.5 +17.4 0.2
19 12.08 Ю 2 35 км в посл. час дождь н/о +12.5 +8.1 75 +12 +12 1011.5 994.8
20 12.08 С 1 30 км н/о +9.8 +7.7 87 +10 +10 1011.8 994.9
21 12.08 штиль 0 40 км н/о +8.0 +7.2 95 +7 +7 1012.1 995.0
22 12.08 СЗ 1 40 км н/о +8.5 +8.0 97 +8 +8 1012.1 995.1
23 12.08 З 1 30 км н/о +8.8 +8.5 98 +8 +8 1012.3 995.3
00 13.08 Ю 1 25 км н/о +8.4 +7.7 95 +7 +7 1012.1 995.1 0.0
01 13.08 З 2 30 км н/о +7.2 +6.3 94 +5 +5 1012.1 995.0
02 13.08 З 2 29 км н/о +6.5 +6.1 97 +4 +4 1012.2 995.0
03 13.08 СЗ 3 35 км н/о +7.3 +6.8 97 +4 +4 1012.0 995.0
04 13.08 З 3 40 км н/о +7.1 +6.5 96 +4 +4 1012.1 995.0
05 13.08 З 3 50 км н/о +6.9 +5.9 93 +4 +4 1012.1 995.0
06 13.08 СЗ 2 27 км н/о +7.6 +6.7 94 +5 +5 1012.0 994.9 +6.2 0.0
07 13.08 З 3 40 км н/о +10.0 +7.5 84 +8 +8 1012.0 995.0
08 13.08 З 4 45 км н/о +11.9 +7.9 76 +10 +10 1012.1 995.2
09 13.08 З 4 50 км н/о +13.9 +7.5 65 +13 +13 1011.7 995.0
10 13.08 З 2 35 км н/о +15.8 +7.8 59 +16 +16 1011.5 994.9
11 13.08 З 3 45 км в посл. час дождь н/о +14.5 +6.9 60 +14 +14 1011.5 994.8
12 13.08 З 4 50 км н/о +16.6 +6.7 52 +16 +16 1011.1 994.5 0.0
13 13.08 СЗ 3 35 км в посл. час дождь н/о +16.1 +7.1 55 +16 +16 1011.0 994.5
14 13.08 В 1 50 км в посл. час дождь н/о +14.1 +8.7 70 +14 +14 1011.2 994.5
15 13.08 СВ 1 45 км в посл. час дождь н/о +13.4 +9.6 78 +14 +14 1011.3 994.6
16 13.08 В 1 40 км слаб. ливневой дождь н/о +13.9 +10.7 81 +14 +14 1011.4 994.7
17 13.08 В 2 50 км в посл. час дождь н/о +14.0 +11.2 83 +13 +13 1011.3 994.6
18 13.08 СЗ 3 40 км н/о +14.6 +8.2 65 +14 +14 1011.3 994.6 +17.6 3
19 13.08 СЗ 3 45 км н/о +12.1 +6.8 70 +11 +11 1011.9 995.1
20 13.08 ЮВ 1 45 км н/о +8.3 +6.1 86 +7 +7 1012.3 995.3
21 13.08 СВ 1 35 км н/о +5.9 +5.0 94 +6 +6 1012.5 995.3
22 13.08 В 1 24 км н/о +4.4 +3.7 95 +4 +4 1012.6 995.3
23 13.08 З 2 20 км н/о +4.0 +3.5 97 +2 +2 1012.5 995.2
00 14.08 З 1 21 км н/о +3.8 +3.5 98 +3 +3 1012.8 995.4
01 14.08 СЗ 1 30 км н/о +4.1 +4.0 99 +2 +2 1012.5 995.2
02 14.08 СВ 1 10 км дымка н/о +3.6 +3.3 98 +3 +3 1012.5 995.2
03 14.08 З 1 8000 м дымка н/о +3.5 +3.4 99 +2 +2 1012.1 994.8
04 14.08 ЮЗ 1 19 км в посл. час туман н/о +3.7 +3.6 99 +3 +3 1011.6 994.2
05 14.08 СЗ 2 35 км н/о +4.5 +4.4 99 +2 +2 1011.2 994.0
06 14.08 ЮЗ 2 25 км н/о +5.8 +5.8 100 +4 +4 1010.9 993.7 +3.0
07 14.08 З 1 29 км н/о +7.4 +7.3 99 +7 +7 1010.2 993.2
08 14.08 З 1 35 км н/о +8.7 +7.6 93 +8 +8 1009.9 992.9
09 14.08 В 1 35 км в посл. час дождь н/о +10.7 +8.5 86 +10 +10 1009.3 992.5
10 14.08 В 2 35 км н/о +11.8 +8.4 80 +11 +11 1008.9 992.1
11 14.08 ЮВ 2 17 км слаб. ливневой дождь н/о +13.1 +9.1 77 +12 +12 1008.5 991.8
12 14.08 В 1 35 км в посл. час дождь н/о +13.8 +9.9 77 +14 +14 1007.9 991.3 0.2
13 14.08 ЮВ 3 40 км в посл. час дождь н/о +15.1 +9.9 71 +14 +14 1007.2 990.6
14 14.08 ЮВ 5 40 км в посл. час дождь н/о +16.5 +9.5 63 +16 +16 1006.1 989.7
15 14.08 ЮВ 5 45 км н/о +16.7 +8.3 58 +16 +16 1005.5 989.1
16 14.08 ЮВ 4 25 км н/о +16.1 +9.8 66 +15 +15 1004.7 988.2
17 14.08 В 5 45 км н/о +15.3 +10.6 74 +14 +14 1004.2 987.7
18 14.08 В 4 35 км слаб. морось с дождем н/о +14.2 +10.9 81 +13 +13 1003.7 987.2 +17.5 0.2
19 14.08 В 3 35 км слаб. морось с дождем н/о +13.2 +11.7 91 +12 +12 1003.1 986.5
20 14.08 В 3 30 км в посл. час дождь н/о +13.0 +11.9 93 +12 +12 1002.6 986.0
21 14.08 В 4 24 км в посл. час дождь н/о +13.3 +11.9 91 +11 +11 1001.6 985.0
22 14.08 В 2 30 км н/о +13.4 +12.0 91 +13 +13 1001.0 984.5
23 14.08 В 2 27 км н/о +13.5 +12.1 91 +13 +13 1000.5 984.0
00 15.08 В 3 11 км ливневой дождь н/о +13.1 +12.5 96 +12 +12 999.9 983.3 2
01 15.08 В 2 19 км в посл. час дождь н/о +13.3 +12.7 96 +12 +12 999.3 982.8
02 15.08 В 1 5000 м дымка н/о +12.9 +12.5 97 +13 +13 998.8 982.3
03 15.08 С 1 4900 м дымка н/о +12.5 +12.2 98 +12 +12 998.6 982.0
04 15.08 З 2 7000 м дымка н/о +12.4 +12.2 99 +11 +11 998.6 982.0
05 15.08 З 2 100 м туман н/о +11.4 +11.2 99 +10 +10 998.8 982.1
06 15.08 З 3 40 км в посл. час туман н/о +11.7 +11.2 97 +10 +10 999.2 982.6 +10.8 2
07 15.08 СЗ 2 40 км н/о +13.5 +11.9 90 +13 +13 999.8 983.3
08 15.08 З 4 7000 м н/о +15.5 +12.7 83 +15 +15 1000.5 984.1
09 15.08 З 6 45 км н/о +15.5 +12.3 81 +14 +14 1001.3 984.8
10 15.08 СЗ 7
{14}
45 км в посл. час дождь н/о +13.4 +10.7 84 +11 +11 1003.0 986.4
11 15.08 З 5 40 км н/о +13.5 +10.2 80 +12 +12 1004.6 988.0
12 15.08 СЗ 6 40 км в посл. час дождь н/о +14.6 +10.0 74 +13 +13 1005.3 988.7 0.4
13 15.08 З 8 26 км н/о +16.5 +8.5 59 +15 +15 1005.9 989.4
14 15.08 З 8
{13}
35 км н/о +16.3 +6.9 54 +15 +15 1006.7 990.2
15 15.08 З 7 50 км н/о +16.3 +6.6 53 +15 +15 1007.1 990.6
16 15.08 З 6 40 км н/о +16.6 +7.1 53 +16 +16 1007.5 991.0
17 15.08 З 5 45 км н/о +16.8 +7.3 53 +16 +16 1007.9 991.4
18 15.08 З 2 40 км н/о +15.5 +8.1 61 +16 +16 1008.4 991.9 +17.3 0.4
19 15.08 З 3 40 км н/о +14.6 +6.8 59 +14 +14 1008.8 992.2
20 15.08 ЮВ 1 45 км н/о +10.9 +6.1 72 +12 +12 1009.3 992.4
21 15.08 З 1 45 км н/о +8.6 +6.1 84 +9 +9 1009.4 992.4
22 15.08 СВ 1 45 км н/о +8.8 +6.9 88 +9 +9 1008.9 992.0
23 15.08 СВ 1 40 км н/о +11.1 +8.3 83 +12 +12 1008.4 991.6
00 16.08 Ю 3 45 км н/о +12.7 +9.4 80 +12 +12 1007.8 991.1
01 16.08 ЮЗ 3 40 км н/о +13.1 +9.6 79 +12 +12 1007.1 990.4
02 16.08 Ю 4 28 км слаб. ливневой дождь н/о +12.6 +9.8 83 +11 +11 1006.7 990.0
03 16.08 Ю 2 50 км в посл. час дождь н/о +12.7 +10.4 86 +12 +12 1005.6 989.0
04 16.08 В 2 45 км дым н/о +13.3 +11.1 87 +13 +13 1004.3 987.7
05 16.08 Ю 3 45 км н/о +14.6 +10.9 78 +14 +14 1003.6 987.1
06 16.08 ЮВ 2 21 км ливневой дождь н/о +13.7 +11.9 89 +13 +13 1002.6 986.0 +7.8 0.2
07 16.08 ЮВ 5 28 км слаб. дождь н/о +14.2 +12.6 90 +13 +13 1001.6 985.0
08 16.08 ЮВ 5 14 км слаб. дождь н/о +14.2 +12.2 88 +13 +13 1000.8 984.3
09 16.08 ЮВ 5 9000 м слаб. дождь н/о +14.2 +12.8 91 +13 +13 999.4 982.9
10 16.08 ЮВ 5 9000 м слаб. дождь н/о +14.4 +12.8 90 +13 +13 998.5 982.0
11 16.08 В 5 5000 м слаб. морось н/о +14.6 +13.3 92 +13 +13 997.5 981.1
12 16.08 ЮВ 7 6000 м в посл. час дождь н/о +16.0 +13.7 86 +15 +15 996.4 980.1 2
13 16.08 ЮВ 8 13 км н/о +17.1 +14.2 83 +16 +16 995.4 979.1
14 16.08 ЮВ 5 10 км дым н/о +15.9 +13.5 86 +15 +15 995.0 978.7
15 16.08 ЮВ 4 25 км в посл. час дождь н/о +17.2 +14.7 85 +17 +17 994.1 977.9
16 16.08 ЮЗ 4 45 км в посл. час дождь н/о +19.6 +14.6 73 +21 +21 комфорт 993.1 977.1
17 16.08 ЮЗ 3 50 км в посл. час дождь н/о +18.6 +14.5 77 +19 +19 992.9 976.8
18 16.08 Ю 3 45 км н/о +18.7 +11.9 65 +20 +20 992.5 976.4 +20.1 2
19 16.08 ЮЗ 3 40 км н/о +17.6 +11.7 68 +18 +18 992.1 975.9
20 16.08 ЮЗ 3 40 км н/о +16.7 +12.1 74 +16 +16 992.1 975.9
21 16.08 В 1 30 км н/о +14.5 +11.8 84 +16 +16 992.1 975.8
22 16.08 В 2 14 км слаб. ливневой дождь н/о +14.0 +13.0 94 +14 +14 992.0 975.6
23 16.08 СВ 1 22 км в посл. час дождь н/о +13.4 +12.4 94 +13 +13 991.4 975.0
00 17.08 З 3 14 км н/о +11.4 +10.6 95 +10 +10 990.8 974.3 0.0
01 17.08 З 2 23 км н/о +10.4 +10.0 97 +9 +9 990.7 974.1
02 17.08 В 1 21 км н/о +10.5 +10.1 97 +10 +10 990.6 974.1
03 17.08 З 2 13 км н/о +9.6 +9.2 97 +8 +8 990.3 973.7
04 17.08 СЗ 1 15 км в посл. час дождь н/о +10.4 +10.2 99 +10 +10 989.9 973.3
05 17.08 З 2 1200 м в посл. час туман н/о +8.1 +7.5 96 +6 +6 989.9 973.3
06 17.08 З 1 19 км в посл. час дождь н/о +10.3 +10.1 99 +10 +10 990.4 973.8 +8.1 0.4
07 17.08 С 1 35 км н/о +13.0 +10.0 82 +13 +13 990.7 974.3
08 17.08 З 5 23 км н/о +14.4 +9.1 70 +13 +13 990.7 974.3
09 17.08 З 7 30 км н/о +15.5 +7.9 61 +14 +14 991.1 974.8
10 17.08 З 7
{13}
40 км н/о +16.2 +7.0 54 +15 +15 991.6 975.4
11 17.08 ЮЗ 7 30 км н/о +15.1 +8.2 63 +13 +13 992.2 975.9
12 17.08 З 6
{14}
24 км в посл. час дождь н/о +12.6 +8.1 74 +10 +10 993.0 976.5 0.0
13 17.08 З 7 40 км в посл. час дождь н/о +16.1 +7.6 57 +15 +15 992.9 976.6
14 17.08 ЮЗ 7 50 км н/о +17.9 +8.2 53 +17 +17 992.7 976.5
15 17.08 ЮЗ 7
{13}
22 км н/о +17.4 +7.0 50 +17 +17 992.9 976.7
16 17.08 ЮЗ 7
{13}
45 км н/о +15.9 +5.6 50 +14 +14 993.0 976.8
17 17.08 ЮЗ 3
{13}
40 км в посл. час дождь н/о +15.3 +7.9 61 +15 +15 993.1 976.8
18 17.08 ЮЗ 4 35 км слаб. ливневой дождь н/о +15.2 +8.0 62 +14 +14 992.9 976.5 +17.9 0.0
19 17.08 ЮЗ 4 50 км в посл. час дождь н/о +14.6 +7.0 60 +13 +13 992.8 976.4
20 17.08 ЮЗ 3 40 км н/о +13.1 +6.6 65 +12 +12 993.4 976.9
21 17.08 ЮВ 2 30 км н/о +12.1 +7.1 71 +11 +11 993.3 976.8
22 17.08 Ю 1 20 км в посл. час дождь н/о +12.5 +8.4 76 +13 +13 993.2 976.7
23 17.08 ЮВ 2 9000 м морось с дождем н/о +12.5 +9.3 81 +12 +12 992.8 976.4
00 18.08 Ю 2 40 км в посл. час дождь н/о +13.1 +8.5 74 +13 +13 992.4 975.9 0.2
01 18.08 ЮВ 2 35 км в посл. час дождь н/о +12.2 +9.4 83 +11 +11 992.2 975.7
02 18.08 ЮЗ 3 29 км в посл. час дождь н/о +12.5 +8.8 78 +11 +11 991.5 975.1
03 18.08 ЮЗ 4 40 км н/о +12.6 +8.6 77 +11 +11 990.8 974.4
04 18.08 Ю 3 30 км н/о +12.3 +9.1 81 +11 +11 990.7 974.3
05 18.08 ЮЗ 3 15 км н/о +12.1 +9.4 84 +11 +11 990.7 974.2
06 18.08 Ю 4 30 км н/о +12.4 +9.6 83 +11 +11 990.4 973.9 +11.6 0.2
07 18.08 Ю 3 40 км н/о +12.7 +9.8 83 +11 +11 990.3 973.8
08 18.08 З 3 30 км н/о +12.8 +9.9 83 +12 +12 990.1 973.7
09 18.08 ЮЗ 4 40 км слаб. морось с дождем н/о +13.4 +10.1 80 +12 +12 990.1 973.8
10 18.08 ЮЗ 4 45 км в посл. час дождь н/о +15.6 +9.6 67 +15 +15 989.7 973.4
11 18.08 Ю 5 26 км слаб. ливневой дождь н/о +15.7 +11.0 74 +15 +15 989.5 973.3
12 18.08 ЮЗ 7-13
{13}
30 км слаб. морось с дождем н/о +16.0 +9.7 66 +15 +15 989.1 972.9 0.0
13 18.08 ЮЗ 9-14
{14}
45 км в посл. час дождь н/о +17.5 +9.9 61 +16 +16 989.3 973.2
14 18.08 ЮЗ 6
{14}
22 км в посл. час дождь н/о +17.4 +11.8 70 +17 +17 989.9 973.7
15 18.08 ЮЗ 8
{13}
30 км н/о +16.2 +10.0 67 +15 +15 990.6 974.3
16 18.08 З 5 45 км слаб. ливневой дождь н/о +14.3 +11.4 83 +13 +13 991.1 974.8
17 18.08 З 5 45 км слаб. морось с дождем н/о +13.9 +10.7 81 +12 +12 991.7 975.3
18 18.08 З 7 50 км в посл. час дождь н/о +15.4 +10.3 72 +14 +14 991.9 975.6 +18.2 0.8
19 18.08 З 7 50 км н/о +14.3 +9.3 72 +12 +12 993.2 976.8
20 18.08 З 4 45 км н/о +12.9 +8.9 77 +11 +11 994.3 977.8
21 18.08 З 5 35 км н/о +12.9 +8.6 75 +11 +11 995.2 978.7
22 18.08 З 5 40 км н/о +12.2 +8.7 79 +10 +10 995.8 979.3
23 18.08 З 2 30 км н/о +11.7 +8.2 79 +11 +11 996.6 980.0
00 19.08 С 1 30 км н/о +10.0 +7.5 84 +10 +10 997.3 980.6
01 19.08 З 3 30 км н/о +10.9 +7.7 81 +9 +9 997.7 981.1
02 19.08 З 4 40 км н/о +10.7 +7.3 79 +8 +8 998.2 981.5
03 19.08 З 5 35 км н/о +10.8 +7.2 78 +8 +8 998.4 981.7
04 19.08 З 4 35 км н/о +10.7 +7.2 79 +8 +8 998.9 982.2
05 19.08 З 3 35 км н/о +9.6 +7.1 84 +8 +8 999.4 982.6
06 19.08 З 3 30 км н/о +11.9 +7.5 74 +10 +10 999.7 983.1 +8.3
07 19.08 СЗ 4 30 км н/о +13.1 +8.9 76 +12 +12 1000.0 983.5
08 19.08 З 4 35 км н/о +14.1 +9.3 73 +13 +13 1000.4 983.9
09 19.08 З 4 50 км н/о +14.8 +9.8 72 +14 +14 1000.9 984.4
10 19.08 З 5 45 км н/о +16.2 +10.3 68 +15 +15 1001.2 984.8
11 19.08 З 6 45 км н/о +17.4 +9.8 61 +17 +17 1001.8 985.5
12 19.08 З 7 9000 м н/о +17.5 +9.6 60 +17 +17 1002.7 986.3

 

Местоположение метеостанции Абойн (Великобритания): широта 57.08 долгота -2.83 высота над уровнем моря 140 м.

В архиве по умолчанию представлена погода в Абойне за последнюю неделю. Архивные данные за месяц целиком и за предыдущие месяцы, начиная с января 2011 года, Вы можете получить, выбрав интересующий диапазон дат из раскрывающегося списка и нажав кнопку "Ввод!".


*Определитесь, кто Вы:
робот инопланетянин человек

Внимание! Время в таблицах - всемирное. Для получения местного времени необходимо прибавить поправку, которая равна 0 ч.

Смотрите также архив погоды в соседних городах и на ближайших метеорологических станциях:

Погода в Абердине (Великобритания) (39 км)
Погода на Кэрнуэлле (Великобритания) (42 км)
Погода в Инвербери (Великобритания) (43 км)
Погода на Кайрнгорме (Великобритания) (49 км)
Погода на Авморе (Великобритания) (62 км)
Погода в Леучарсе (Великобритания) (76 км)
Погода в Лоссимуте (Великобритания) (77 км)
Погода в Кинлоссе (Великобритания) (77 км)
Погода в Страталлане (Великобритания) (101 км)
Погода в Тейн-Рендже (Великобритания) (107 км)

Пояснения к столбцам:

Ветер - указаны скорость ветра в м/с - средняя за 10 мин, порывы в срок и между сроками (в фигурных скобках) и направление, откуда дует ветер: С - северный, СВ - северо-восточный, В - восточный, ЮВ - юго-восточный, Ю - южный, ЮЗ - юго-западный, З - западный, СЗ - северо-западный.
Видимость - горизонтальная дальность видимости в метрах или километрах. При видимости от 1 до 10 км при отсутствии осадков обычно наблюдается дымка, при ухудшении видимости до 1 км и менее - туман. В сухую погоду видимость может ухудшаться дымом, пылью или мглою.
Явления - указаны атмосферные явления, наблюдавшиеся в срок или в последний час перед сроком; фигурными скобками обозначены явления, наблюдавшиеся между сроками (за 1-3 часа до срока); квадратными скобками обозначены град или гололедные отложения с указанием их диаметра в мм.
Облачность - указаны через наклонную черту общая и нижняя облачность в баллах и высота нижней границы облаков в метрах; квадратными скобками обозначены формы облаков: Ci - перистые, Cs - перисто-слоистые, Cc - перисто-кучевые, Ac - высококучевые, As - высокослоистые, Sc - слоисто-кучевые, Ns - слоисто-дождевые, Cu - кучевые, Cb - кучево-дождевые. Подробнее классификацию облаков см. в Атласе облаков (PDF).
T - Температура воздуха - температура, измеренная на высоте 2 м над землей.
Td - Температура точки росы - температура, при понижении до которой содержащийся в воздухе водяной пар достигнет насыщения.
f - Относительная влажность воздуха - влажноcть воздуха, измеренная на высоте 2 м над землей.
Te - Эффективная температура - температура, которую ощущает одетый по сезону человек в тени. Характеристика душности погоды. При расчете учитывается влияние влажности воздуха и скорости ветра на теплоощущения человека.
Tes - Эффективная температура на солнце - температура, которую ощущает человек, с поправкой на солнечный нагрев. Характеристика знойности погоды. Зависит от высоты солнца над горизонтом, облачности и скорости ветра. Ночью, в пасмурную погоду, а также при ветре 12 м/с и более поправка равна нулю.
P - Атмосферное давление - приведенное к уровню моря атмосферное давление.
Po - Атмосферное давление - измеренное на уровне метеостанции атмосферное давление.
Tmin - Минимальная температура - минимум температуры воздуха на высоте 2 м над землей.
Tmax - Максимальная температура - максимум температуры воздуха на высоте 2 м над землей.
R - Количество осадков - Количество выпавших осадков за период времени, мм. При наведении курсора мыши на число - период времени, за который выпало указанное количество осадков.
R24 - Количество осадков - Количество выпавших осадков за 24 часа, мм.
S - Снежный покров - Высота снежного покрова, см. При наведении курсора мыши на число - состояние снежного покрова и степень покрытия местности в баллах.